Time,TemperatureF,DewpointF,PressureIn,WindDirection,WindDirectionDegrees,WindSpeedMPH,WindSpeedGustMPH,Humidity,HourlyPrecipIn,Conditions,Clouds,dailyrainin,SoftwareType,DateUTC
2013-09-20 00:03:00,55.3,55.0,30.08,NW,307,1.0,2.0,97,0.00,,,0.00,weatherlink.com 1.10,2013-09-20 04:03:00,
2013-09-20 00:18:00,55.0,54.0,30.08,NW,311,1.0,2.0,97,0.00,,,0.00,weatherlink.com 1.10,2013-09-20 04:18:00,
2013-09-20 00:33:00,54.9,54.0,30.08,NW,314,1.0,2.0,98,0.00,,,0.00,weatherlink.com 1.10,2013-09-20 04:33:00,
2013-09-20 00:48:00,54.5,54.0,30.08,NW,314,1.0,2.0,98,0.00,,,0.00,weatherlink.com 1.10,2013-09-20 04:48:00,
2013-09-20 01:03:00,54.6,54.0,30.08,NW,314,1.0,2.0,98,0.00,,,0.00,weatherlink.com 1.10,2013-09-20 05:03:00,
2013-09-20 01:18:00,54.3,54.0,30.09,NW,313,2.0,2.0,98,0.00,,,0.00,weatherlink.com 1.10,2013-09-20 05:18:00,
2013-09-20 01:33:00,54.0,54.0,30.09,NW,318,1.0,2.0,99,0.00,,,0.00,weatherlink.com 1.10,2013-09-20 05:33:00,
2013-09-20 01:48:00,53.8,54.0,30.09,NW,318,2.0,2.0,99,0.00,,,0.00,weatherlink.com 1.10,2013-09-20 05:48:00,
2013-09-20 02:03:00,53.7,54.0,30.09,NW,318,1.0,2.0,99,0.00,,,0.00,weatherlink.com 1.10,2013-09-20 06:03:00,
2013-09-20 02:18:00,53.4,53.0,30.09,NW,317,1.0,2.0,99,0.00,,,0.00,weatherlink.com 1.10,2013-09-20 06:18:00,
2013-09-20 02:33:00,53.2,53.0,30.09,NNW,328,1.0,2.0,99,0.00,,,0.00,weatherlink.com 1.10,2013-09-20 06:33:00,
2013-09-20 02:48:00,52.9,53.0,30.09,NNW,328,1.0,1.0,99,0.00,,,0.00,weatherlink.com 1.10,2013-09-20 06:48:00,
2013-09-20 03:03:00,52.8,53.0,30.08,NNW,327,1.0,2.0,99,0.00,,,0.00,weatherlink.com 1.10,2013-09-20 07:03:00,
2013-09-20 03:18:00,52.3,52.0,30.08,NW,321,1.0,2.0,99,0.00,,,0.00,weatherlink.com 1.10,2013-09-20 07:18:00,
2013-09-20 03:33:00,52.3,52.0,30.08,NW,321,1.0,2.0,99,0.00,,,0.00,weatherlink.com 1.10,2013-09-20 07:33:00,
2013-09-20 03:48:00,52.1,52.0,30.08,NW,321,2.0,2.0,99,0.00,,,0.00,weatherlink.com 1.10,2013-09-20 07:48:00,
2013-09-20 04:03:00,51.9,52.0,30.08,NW,321,0.0,2.0,99,0.00,,,0.00,weatherlink.com 1.10,2013-09-20 08:03:00,
2013-09-20 04:18:00,52.0,52.0,30.08,NW,320,1.0,1.0,99,0.00,,,0.00,weatherlink.com 1.10,2013-09-20 08:18:00,
2013-09-20 04:33:00,51.5,51.0,30.08,NW,320,1.0,1.0,99,0.00,,,0.00,weatherlink.com 1.10,2013-09-20 08:33:00,
2013-09-20 04:48:00,51.3,51.0,30.08,NNW,335,1.0,2.0,99,0.00,,,0.00,weatherlink.com 1.10,2013-09-20 08:48:00,
2013-09-20 05:03:00,51.3,51.0,30.09,NNW,332,1.0,2.0,100,0.00,,,0.00,weatherlink.com 1.10,2013-09-20 09:03:00,
2013-09-20 05:18:00,51.0,51.0,30.09,NNW,330,1.0,2.0,100,0.00,,,0.00,weatherlink.com 1.10,2013-09-20 09:18:00,
2013-09-20 05:33:00,51.0,51.0,30.09,NNW,329,0.0,2.0,100,0.00,,,0.00,weatherlink.com 1.10,2013-09-20 09:33:00,
2013-09-20 05:48:00,50.8,51.0,30.09,NNW,329,1.0,1.0,100,0.00,,,0.00,weatherlink.com 1.10,2013-09-20 09:48:00,
2013-09-20 06:03:00,50.6,51.0,30.09,NNW,329,1.0,2.0,100,0.00,,,0.00,weatherlink.com 1.10,2013-09-20 10:03:00,
2013-09-20 06:18:00,50.6,51.0,30.09,NNW,329,1.0,1.0,100,0.00,,,0.00,weatherlink.com 1.10,2013-09-20 10:18:00,
2013-09-20 06:33:00,50.3,50.0,30.09,NNW,328,1.0,2.0,100,0.00,,,0.00,weatherlink.com 1.10,2013-09-20 10:33:00,
2013-09-20 06:48:00,50.2,50.0,30.09,NNW,329,1.0,1.0,100,0.00,,,0.00,weatherlink.com 1.10,2013-09-20 10:48:00,
2013-09-20 07:03:00,50.0,50.0,30.08,NNW,329,1.0,1.0,100,0.00,,,0.00,weatherlink.com 1.10,2013-09-20 11:03:00,
2013-09-20 07:18:00,50.4,50.0,30.09,NNW,329,0.0,1.0,100,0.00,,,0.00,weatherlink.com 1.10,2013-09-20 11:18:00,
2013-09-20 07:33:00,50.8,51.0,30.09,NNW,329,1.0,1.0,100,0.00,,,0.00,weatherlink.com 1.10,2013-09-20 11:33:00,
2013-09-20 07:49:00,52.0,52.0,30.08,NNW,329,1.0,1.0,100,0.00,,,0.00,weatherlink.com 1.10,2013-09-20 11:49:00,
2013-09-20 08:03:00,53.4,53.0,30.08,NNW,330,0.0,1.0,100,0.00,,,0.00,weatherlink.com 1.10,2013-09-20 12:03:00,
2013-09-20 08:18:00,56.3,56.0,30.08,NNW,330,0.0,0.0,100,0.01,,,0.01,weatherlink.com 1.10,2013-09-20 12:18:00,
2013-09-20 08:33:00,58.2,58.0,30.07,SE,134,1.0,2.0,100,0.01,,,0.01,weatherlink.com 1.10,2013-09-20 12:33:00,
2013-09-20 08:49:00,59.6,59.0,30.08,SE,139,1.0,2.0,99,0.01,,,0.01,weatherlink.com 1.10,2013-09-20 12:49:00,
2013-09-20 09:04:00,61.8,60.0,30.09,SE,138,1.0,2.0,94,0.01,,,0.01,weatherlink.com 1.10,2013-09-20 13:04:00,
2013-09-20 09:19:00,63.8,60.0,30.08,East,89,1.0,2.0,87,0.00,,,0.01,weatherlink.com 1.10,2013-09-20 13:19:00,
2013-09-20 09:34:00,63.7,60.0,30.09,ESE,117,2.0,3.0,86,0.00,,,0.01,weatherlink.com 1.10,2013-09-20 13:34:00,
2013-09-20 09:49:00,64.9,60.0,30.09,East,92,1.0,4.0,85,0.00,,,0.01,weatherlink.com 1.10,2013-09-20 13:49:00,
2013-09-20 10:04:00,66.2,61.0,30.09,SE,143,2.0,4.0,83,0.00,,,0.01,weatherlink.com 1.10,2013-09-20 14:04:00,
2013-09-20 10:19:00,68.7,62.0,30.08,SE,143,1.0,2.0,79,0.00,,,0.01,weatherlink.com 1.10,2013-09-20 14:19:00,
2013-09-20 10:34:00,70.1,61.0,30.08,ESE,120,4.0,5.0,74,0.00,,,0.01,weatherlink.com 1.10,2013-09-20 14:34:00,
2013-09-20 10:49:00,70.2,62.0,30.08,ESE,119,2.0,4.0,74,0.00,,,0.01,weatherlink.com 1.10,2013-09-20 14:49:00,
2013-09-20 11:04:00,71.7,61.0,30.07,ESE,103,3.0,4.0,70,0.00,,,0.01,weatherlink.com 1.10,2013-09-20 15:04:00,
2013-09-20 11:19:00,72.3,62.0,30.07,SSE,155,1.0,5.0,70,0.00,,,0.01,weatherlink.com 1.10,2013-09-20 15:19:00,
2013-09-20 11:34:00,73.5,62.0,30.06,East,96,4.0,7.0,67,0.00,,,0.01,weatherlink.com 1.10,2013-09-20 15:34:00,
2013-09-20 11:49:00,74.3,62.0,30.06,ESE,120,2.0,7.0,65,0.00,,,0.01,weatherlink.com 1.10,2013-09-20 15:49:00,
2013-09-20 12:04:00,74.8,62.0,30.06,ESE,108,2.0,8.0,64,0.00,,,0.01,weatherlink.com 1.10,2013-09-20 16:04:00,
2013-09-20 12:19:00,75.5,61.0,30.05,SSW,201,3.0,7.0,62,0.00,,,0.01,weatherlink.com 1.10,2013-09-20 16:19:00,
2013-09-20 12:34:00,76.1,62.0,30.05,SW,234,3.0,7.0,61,0.00,,,0.01,weatherlink.com 1.10,2013-09-20 16:34:00,
2013-09-20 12:49:00,75.8,60.0,30.05,SW,235,2.0,7.0,58,0.00,,,0.01,weatherlink.com 1.10,2013-09-20 16:49:00,
2013-09-20 13:04:00,76.2,59.0,30.04,SSW,207,9.0,10.0,56,0.00,,,0.01,weatherlink.com 1.10,2013-09-20 17:04:00,
2013-09-20 13:19:00,75.7,59.0,30.04,ESE,113,4.0,8.0,57,0.00,,,0.01,weatherlink.com 1.10,2013-09-20 17:19:00,
2013-09-20 13:34:00,75.6,60.0,30.04,SE,135,3.0,8.0,58,0.00,,,0.01,weatherlink.com 1.10,2013-09-20 17:34:00,
2013-09-20 13:49:00,76.9,59.0,30.02,SSE,154,5.0,11.0,54,0.00,,,0.01,weatherlink.com 1.10,2013-09-20 17:49:00,
2013-09-20 14:04:00,77.4,59.0,30.02,SW,233,8.0,10.0,54,0.00,,,0.01,weatherlink.com 1.10,2013-09-20 18:04:00,
2013-09-20 14:19:00,77.3,60.0,30.02,SSW,197,7.0,9.0,56,0.00,,,0.01,weatherlink.com 1.10,2013-09-20 18:19:00,
2013-09-20 14:34:00,77.4,60.0,30.02,ENE,75,1.0,8.0,55,0.00,,,0.01,weatherlink.com 1.10,2013-09-20 18:34:00,
2013-09-20 14:49:00,77.0,60.0,30.02,SSE,155,2.0,10.0,56,0.00,,,0.01,weatherlink.com 1.10,2013-09-20 18:49:00,
2013-09-20 15:05:00,78.2,61.0,30.01,South,172,8.0,10.0,56,0.00,,,0.01,weatherlink.com 1.10,2013-09-20 19:05:00,
2013-09-20 15:20:00,77.7,61.0,30.00,East,101,2.0,9.0,56,0.00,,,0.01,weatherlink.com 1.10,2013-09-20 19:20:00,
2013-09-20 15:35:00,77.9,60.0,30.00,SSE,151,6.0,11.0,55,0.00,,,0.01,weatherlink.com 1.10,2013-09-20 19:35:00,
2013-09-20 15:50:00,77.9,61.0,29.99,ESE,117,2.0,8.0,56,0.00,,,0.01,weatherlink.com 1.10,2013-09-20 19:50:00,
2013-09-20 16:05:00,78.1,61.0,29.99,SE,136,1.0,10.0,55,0.00,,,0.01,weatherlink.com 1.10,2013-09-20 20:05:00,
2013-09-20 16:20:00,77.5,60.0,29.99,SE,132,8.0,16.0,56,0.00,,,0.01,weatherlink.com 1.10,2013-09-20 20:20:00,
2013-09-20 16:35:00,78.0,61.0,29.99,SE,145,6.0,7.0,56,0.00,,,0.01,weatherlink.com 1.10,2013-09-20 20:35:00,
2013-09-20 16:50:00,77.3,61.0,29.98,SE,136,8.0,8.0,57,0.00,,,0.01,weatherlink.com 1.10,2013-09-20 20:50:00,
2013-09-20 17:05:00,76.6,61.0,29.97,SSW,211,3.0,12.0,59,0.00,,,0.01,weatherlink.com 1.10,2013-09-20 21:05:00,
2013-09-20 17:20:00,76.3,61.0,29.98,SW,214,4.0,9.0,59,0.00,,,0.01,weatherlink.com 1.10,2013-09-20 21:20:00,
2013-09-20 17:35:00,76.1,61.0,29.98,SSE,151,2.0,8.0,59,0.00,,,0.01,weatherlink.com 1.10,2013-09-20 21:35:00,
2013-09-20 17:50:00,75.2,60.0,29.97,SSE,150,4.0,11.0,60,0.00,,,0.01,weatherlink.com 1.10,2013-09-20 21:50:00,
2013-09-20 18:05:00,74.9,60.0,29.97,SE,143,5.0,10.0,61,0.00,,,0.01,weatherlink.com 1.10,2013-09-20 22:05:00,
2013-09-20 18:20:00,73.8,61.0,29.97,SE,139,3.0,8.0,64,0.00,,,0.01,weatherlink.com 1.10,2013-09-20 22:20:00,
2013-09-20 18:35:00,72.8,61.0,29.97,SE,125,3.0,8.0,66,0.00,,,0.01,weatherlink.com 1.10,2013-09-20 22:35:00,
2013-09-20 18:50:00,71.6,60.0,29.96,South,170,5.0,7.0,68,0.00,,,0.01,weatherlink.com 1.10,2013-09-20 22:50:00,
2013-09-20 19:05:00,70.5,60.0,29.97,SE,139,1.0,5.0,70,0.00,,,0.01,weatherlink.com 1.10,2013-09-20 23:05:00,
2013-09-20 19:20:00,69.0,60.0,29.96,SE,142,0.0,1.0,72,0.00,,,0.01,weatherlink.com 1.10,2013-09-20 23:20:00,
2013-09-20 19:35:00,67.9,59.0,29.97,SSE,150,0.0,1.0,74,0.00,,,0.01,weatherlink.com 1.10,2013-09-20 23:35:00,
2013-09-20 19:50:00,66.9,59.0,29.97,South,173,1.0,2.0,76,0.00,,,0.01,weatherlink.com 1.10,2013-09-20 23:50:00,
2013-09-20 20:05:00,66.6,59.0,29.97,SSE,148,1.0,2.0,77,0.00,,,0.01,weatherlink.com 1.10,2013-09-21 00:05:00,
2013-09-20 20:20:00,66.3,59.0,29.97,SSE,158,1.0,2.0,78,0.00,,,0.01,weatherlink.com 1.10,2013-09-21 00:20:00,
2013-09-20 20:35:00,65.8,59.0,29.97,SSE,149,0.0,1.0,79,0.00,,,0.01,weatherlink.com 1.10,2013-09-21 00:35:00,
2013-09-20 20:50:00,64.9,59.0,29.98,South,173,2.0,3.0,82,0.00,,,0.01,weatherlink.com 1.10,2013-09-21 00:50:00,
2013-09-20 21:05:00,64.3,59.0,29.98,ESE,122,0.0,2.0,83,0.00,,,0.01,weatherlink.com 1.10,2013-09-21 01:05:00,
2013-09-20 21:20:00,63.7,59.0,29.98,SSE,160,1.0,3.0,85,0.00,,,0.01,weatherlink.com 1.10,2013-09-21 01:20:00,
2013-09-20 21:35:00,63.1,60.0,29.98,SSE,165,2.0,4.0,88,0.00,,,0.01,weatherlink.com 1.10,2013-09-21 01:35:00,
2013-09-20 21:50:00,62.7,60.0,29.98,SSW,210,1.0,3.0,89,0.00,,,0.01,weatherlink.com 1.10,2013-09-21 01:50:00,
2013-09-20 22:05:00,62.4,60.0,29.98,SSE,148,0.0,2.0,90,0.00,,,0.01,weatherlink.com 1.10,2013-09-21 02:05:00,
2013-09-20 22:20:00,62.2,59.0,29.98,SSE,153,1.0,2.0,90,0.00,,,0.01,weatherlink.com 1.10,2013-09-21 02:20:00,
2013-09-20 22:35:00,62.3,59.0,29.98,SSE,153,4.0,5.0,90,0.00,,,0.01,weatherlink.com 1.10,2013-09-21 02:35:00,
2013-09-20 22:50:00,62.0,59.0,29.98,SSE,148,2.0,2.0,90,0.00,,,0.01,weatherlink.com 1.10,2013-09-21 02:50:00,
2013-09-20 23:05:00,61.7,59.0,29.98,SSE,167,2.0,3.0,90,0.00,,,0.01,weatherlink.com 1.10,2013-09-21 03:05:00,
2013-09-20 23:20:00,61.2,58.0,29.99,SSE,166,1.0,2.0,90,0.00,,,0.01,weatherlink.com 1.10,2013-09-21 03:20:00,
2013-09-20 23:35:00,60.8,58.0,29.99,SE,129,1.0,3.0,91,0.00,,,0.01,weatherlink.com 1.10,2013-09-21 03:35:00,
2013-09-20 23:50:00,60.9,58.0,29.99,SSE,152,0.0,2.0,90,0.00,,,0.01,weatherlink.com 1.10,2013-09-21 03:50:00,